weather.gov     
National Weather Service

Regional Weather Roundup
NWS Homepage
This page is being discontinued on March 12, 2014.
The same data is available at this site. Please update your bookmarks.
Thank you, and we apologize for the inconvenience.
Please send an email to SR-SRH.Webmaster@noaa.gov with any concerns.


Current Version
Previous Version:    01  02  03  04  05  06  07  08  09  10  11  12  13  14  15  16  17  18  19  20  21  22  23  24  25  26  27  28  29  30  
   31  32  33  34  35  36  37  38  39  40  41  42  43  44  45  46  47  48  49  50  51  52  53  
[Printable]
985
ASUS43 KGRB 300610
RWRGRB

NORTH-CENTRAL AND NORTHEAST WISCONSIN REGIONAL WEATHER ROUNDUP
NATIONAL WEATHER SERVICE GREEN BAY WI
1200 AM CST FRI JAN 30 2015

WIZ005-009-010>012-018-019-300700-
NORTH CENTRAL WISCONSIN

CITY           SKY/WX    TMP DP  RH WIND       PRES   REMARKS
IRONWOOD       CLOUDY    14   7  73 N10       30.39R WCI   1
MANITOWISH WTR FLURRIES  12   7  79 N6        30.37R WCI   3
ARBOR VITAE    CLOUDY    14   8  75 N10       30.36R WCI   1
EAGLE RIVER    FLURRIES  13   5  73 N13       30.33R WCI  -2
LAND O LAKES   FLURRIES  13   7  79 N15       30.34S WCI  -3
RHINELANDER    CLOUDY    14   3  61 NW9G18    30.34S WCI   2
PHILLIPS       CLOUDY    13   5  69 N8        30.39R WCI   2
ANTIGO         CLOUDY    14   6  69 N13       30.34R WCI   0
TOMAHAWK       CLOUDY    15   6  70 N5        30.37S WCI   7
MERRILL        CLOUDY    16   5  62 N15       30.37S WCI   1
$$

WIZ013-073-300700-
NORTHEAST WISCONSIN

CITY           SKY/WX    TMP DP  RH WIND       PRES   REMARKS
IRON MOUNTAIN  CLOUDY    14   3  61 NW12      30.33R WCI   0
MARINETTE      CLOUDY    18   7  62 N13       30.36R WCI   4
OCONTO         CLOUDY    18   8  63 MISG      30.38R
$$

WIZ017-030-035>037-045-300700-
CENTRAL WISCONSIN

CITY           SKY/WX    TMP DP  RH WIND       PRES   REMARKS
MEDFORD        CLOUDY    14   6  69 N12       30.38R WCI   1
WAUSAU         CLOUDY    17   5  59 N12G18    30.37R WCI   4
MOSINEE        CLOUDY    18   9  68 NW12      30.39R WCI   5
MARSHFIELD     CLOUDY    17   6  62 NW12      30.39R WCI   4
WISC RAPIDS    CLOUDY    20   8  60 NW9       30.41R WCI   9
STEVENS POINT  CLOUDY    18   8  64 N8        30.39R WCI   7
WAUPACA        PTCLDY    22   7  52 NW10G20   30.39R
SHAWANO        CLOUDY    22  10  59 N8        30.38R
CLINTONVILLE   CLOUDY    21  12  68 NW13      30.37R WCI   9
$$

WIZ038-039-048-051-300700-
FOX VALLEY

CITY           SKY/WX    TMP DP  RH WIND       PRES   REMARKS
NWS GREEN BAY  CLOUDY    21  12  68 N13       30.37R WCI   9
APPLETON       PTCLDY    21  12  68 NW12      30.36R WCI   9
OSHKOSH        CLOUDY    22   9  57 NW12      30.36R
FOND DU LAC    CLOUDY    22   8  55 N13       30.36R WCI  10
$$

WIZ022-050-052-300700-
EAST CENTRAL WISCONSIN

CITY           SKY/WX    TMP DP  RH WIND       PRES   REMARKS
STURGEON BAY   CLOUDY    16   9  73 N12       30.37R WCI   3
MANITOWOC      PTCLDY    20  12  71 N15       30.36R WCI   6
SHEBOYGAN      CLOUDY    23  12  62 N13       30.34R
$$

LMZ563-521-522-541>543-300700-
LAKESHORE

STATION/POSITION TIME  TEMP    WIND        PRES    VSBY  WAVE
                       AIR SEA DIR/SP/G                  HT/PER
                 (UTC) (F)     (DEG/KT/KT) (MB)    (MI)  (FT/S)
SHEBOYGAN LKSHOR 0600   24     350/ 21/ 25 1028.6R
KEWAUNEE LKSHORE 0600   18     360/ 10/ 16 1027.0R
NORTHPORT PIER   0600   19     330/ 24/ 30 1027.4R
SISTER BAY LKSHO 0600   16     350/ 29/ 35   N/A
CHAMBERS ISLAND  0600   17     330/ 17/ 21 1027.8R
MENOMINEE LKSHOR 0600   18     340/ 10     1028.7R
$$




U.S. Dept. of Commerce
NOAA National Weather Service
1325 East West Highway
Silver Spring, MD 20910
E-mail: w-nws.webmaster@noaa.gov
Page last modified: May 16, 2007
NATIONAL WEATHER SERVICE: for Safety, for Work, for Fun - FOR LIFE